This is the latest recevied weather packets stored in our database for station/object OE7AOT-10. If no packets are shown the sender has not sent any weather packets the latest 1 day(s).
| Time | Temp. | Humidity | Pressure | Rain* | Wind** | Luminosity | Snow |
|---|---|---|---|---|---|---|---|
| 1778088073 | 23.89° C | 32% | 1014.9 hPa | - | - | - | - |
| 1778087173 | 23.89° C | 31% | 1014.4 hPa | - | - | - | - |
| 1778083572 | 24.44° C | 28% | 1014.1 hPa | - | - | - | - |
| 1778082672 | 24.44° C | 28% | 1013.9 hPa | - | - | - | - |
| 1778080872 | 25° C | 27% | 1013.8 hPa | - | - | - | - |
| 1778079972 | 25° C | 28% | 1013.8 hPa | - | - | - | - |
| 1778075471 | 24.44° C | 30% | 1013.7 hPa | - | - | - | - |
| 1778074571 | 24.44° C | 32% | 1013.9 hPa | - | - | - | - |
| 1778073671 | 24.44° C | 32% | 1013.9 hPa | - | - | - | - |
| 1778069170 | 22.78° C | 30% | 1014.3 hPa | - | - | - | - |
| 1778068270 | 22.78° C | 30% | 1014.5 hPa | - | - | - | - |
| 1778067370 | 23.33° C | 30% | 1014.5 hPa | - | - | - | - |
| 1778062869 | 24.44° C | 32% | 1015.4 hPa | - | - | - | - |
| 1778061969 | 23.89° C | 32% | 1015.7 hPa | - | - | - | - |
| 1778061069 | 23.89° C | 32% | 1015.8 hPa | - | - | - | - |
| 1778060168 | 23.89° C | 33% | 1016 hPa | - | - | - | - |
| 1778059268 | 23.89° C | 32% | 1015.9 hPa | - | - | - | - |
| 1778053866 | 22.78° C | 32% | 1016.2 hPa | - | - | - | - |
| 1778052965 | 22.78° C | 32% | 1016.4 hPa | - | - | - | - |
| 1778052065 | 23.33° C | 29% | 1016.4 hPa | - | - | - | - |
| 1778051164 | 23.33° C | 29% | 1016.7 hPa | - | - | - | - |
| 1778050264 | 23.89° C | 29% | 1016.8 hPa | - | - | - | - |
| 1778049364 | 23.89° C | 29% | 1017 hPa | - | - | - | - |
| 1778048464 | 23.89° C | 29% | 1017.2 hPa | - | - | - | - |
| 1778043063 | 23.89° C | 29% | 1017.8 hPa | - | - | - | - |
* Rain since midnight (hover to see other rain measurements)
** Current wind speed in m/s (hover to see current wind gust speed)